NOAA 15 1 25338U 98030A 21101.14883257 .00000036 00000-0 33461-4 0 9994 2 25338 98.6892 130.2532 0011509 114.9444 245.2933 14.26021443191651 NOAA 18 1 28654U 05018A 21100.87381292 .00000091 00000-0 73510-4 0 9993 2 28654 99.0001 165.4515 0015322 112.3069 247.9728 14.12596318818903 METOP-A 1 29499U 06044A 21101.10169753 .00000008 00000-0 22645-4 0 9995 2 29499 98.4805 143.0336 0001740 105.9349 280.0248 14.21503634751176 NOAA 19 1 33591U 09005A 21101.11389347 .00000058 00000-0 56898-4 0 9999 2 33591 99.1891 120.1335 0013269 324.7103 35.3188 14.12459727627416 METOP-B 1 38771U 12049A 21101.15359015 .00000006 00000-0 22679-4 0 9992 2 38771 98.6858 162.1132 0001351 169.2539 216.7857 14.21502699444314 SARAL 1 39086U 13009A 21101.17534348 .00000002 00000-0 16799-4 0 9997 2 39086 98.5461 288.2310 0002085 94.0208 266.1214 14.32048601424611 METOP-C 1 43689U 18087A 21101.11593312 .00000006 00000-0 22531-4 0 9997 2 43689 98.6928 162.5308 0002259 183.2442 176.8721 14.21491617125883 ANGELS 1 44876U 19092D 21100.57684983 .00000370 00000-0 22300-4 0 9995 2 44876 97.4671 285.1637 0013950 65.8504 294.4186 15.16649736 72611